Weather Roundup
Issued by NWS

Home | Current Version | Previous Version | Graphics & Text | Print | Product List | Glossary Off
Versions: 1 2 3 4 5 6 7 8 9 10 11 12 13 14 15 16 17 18 19 20 21 22 23 24 25 26 27 28 29 30 31 32 33 34 35 36 37 38 39 40 41 42 43 44 45 46 47 48 49 50

974
NZUS93 KARX 231310
HRRWXR

CURRENT HOURLY OBSERVATIONS ACROSS
MUCH OF THE UPPER MISSISSIPPI VALLEY
NATIONAL WEATHER SERVICE LA CROSSE WI
700 AM CST MON JAN 23 2017


...SOUTHEAST MINNESOTA...


CITY           SKY/WX    TMP DP  RH WIND       PRES   REMARKS
ROCHESTER      CLOUDY    31  31 100 W10       29.79S FOG     WCI  22
ROCHESTER/MAYO CLOUDY    32  33 100 W6        29.80S WCI  27
WINONA         CLOUDY    34  32  93 NW3       29.81S
AUSTIN         CLOUDY    32  28  86 W7        29.80S WCI  26
ALBERT LEA     CLOUDY    32  32 100 W5        29.81R WCI  27
DODGE CENTER   LGT SNOW  30  30 100 CALM      29.79S
PRESTON        CLOUDY    31  30  95 NW9       29.80R FOG     WCI  23
OWATONNA       LGT SNOW  32  30  93 W5        29.81S WCI  27
FARIBAULT      NOT AVBL
$$

...ELSEWHERE IN MINNESOTA...


CITY           SKY/WX    TMP DP  RH WIND       PRES   REMARKS
MINNEAPOLIS    DRIZZLE   34  31  88 W5        29.80F FOG     WCI  30
INTNL FALLS    CLOUDY    33  31  92 W7        29.74S FOG     WCI  27
DULUTH         DRIZZLE   34  33  96 NW9       29.73S WCI  27
RED WING       CLOUDY    34  32  93 W3        29.80S FOG
REDWOOD FALLS  CLOUDY    33  27  78 NW7       29.82F WCI  27
MANKATO        NOT AVBL
WORTHINGTON    CLOUDY    31  29  92 N9        29.81F WCI  23
FAIRMONT       CLOUDY    33  28  81 NW10      29.83S WCI  25
$$

...SOUTHWEST WISCONSIN...


CITY           SKY/WX    TMP DP  RH WIND       PRES   REMARKS
LA CROSSE      CLOUDY    37  33  85 CALM      29.80R
PRAIRIE DU CHI CLOUDY    35  32  91 CALM      29.81R
BOSCOBEL       CLOUDY    37  35  92 CALM      29.81R
LONE ROCK      CLOUDY    37  34  89 NW6       29.80R FOG     WCI  32
PLATTEVILLE    CLOUDY    35  35 100 NW7       29.80R WCI  29
FORT MC COY    CLOUDY    33  33 100 CALM      29.80R FOG
CAMP DOUGLAS   FOG       34  34 100 W3        29.78R VSB 1
MAUSTON-NEW LI FOG       35  35  99 W3        29.78R VSB 3/4
VIROQUA        CLOUDY    33  33 100 NW6       29.78R VSB 1/4 WCI  28
WIS DELLS      FOG       34  34  99 CALM      29.77R VSB 3/4
$$

...ELSEWHERE IN WISCONSIN...


CITY           SKY/WX    TMP DP  RH WIND       PRES   REMARKS
MILWAUKEE      CLOUDY    39  35  86 NW6       29.75R WCI  35
MADISON        CLOUDY    35  34  96 CALM      29.77S
GREEN BAY      CLOUDY    36  36 100 NW5       29.75S WCI  32
EAU CLAIRE     CLOUDY    33  33 100 W5        29.77S FOG     WCI  29
BLACK RVR FLS  FOG       35  35 100 W3        29.78R VSB 1/4
MEDFORD        FOG       32  32  99 CALM      29.74R VSB 1/4
WAUSAU         CLOUDY    34  33  96 CALM      29.73R
WIS RAPIDS     CLOUDY    34  34 100 CALM      29.77R
MARSHFIELD     FOG       33  32  96 NW3       29.74R VSB 1/2
RICE LAKE      FOG       33  33 100 CALM      29.78S VSB 1/4
$$

...NORTHEAST IOWA...


CITY           SKY/WX    TMP DP  RH WIND       PRES   REMARKS
WATERLOO       LGT SNOW  32  31  96 W5        29.83R FOG     WCI  27
DUBUQUE        CLOUDY    34  34 100 NW10      29.79R FOG     WCI  26
DECORAH        CLOUDY    32  32 100 VRB3      29.79S
MASON CITY     CLOUDY    31  28  89 NW13      29.84R WCI  21
CHARLES CITY   CLOUDY    32  32 100 NW13      29.82R FOG     WCI  22
OELWEIN        LGT SNOW  32  32 100 NW8       29.81S WCI  25
$$

...ELSEWHERE IN IOWA...


CITY           SKY/WX    TMP DP  RH WIND       PRES   REMARKS
DES MOINES     DRIZZLE   33  31  92 N6        29.85F FOG     WCI  28
IOWA CITY      CLOUDY    36  33  89 NW8       29.84R WCI  30
FORT DODGE     CLOUDY    32  27  80 N6        29.84S WCI  26
MARSHALLTOWN   CLOUDY    32  31  96 NW10      29.82S WCI  24
CEDAR RAPIDS   CLOUDY    33  32  96 NW9       29.81R FOG     WCI  25
$$

...NORTHERN ILLINOIS...


CITY           SKY/WX    TMP DP  RH WIND       PRES   REMARKS
CHICAGO-OHARE  CLOUDY    38  35  89 N12       29.73S WCI  30
CHICAGO-MIDWAY CLOUDY    39  34  82 N13G23    29.74R WCI  31
MOLINE         CLOUDY    37  33  85 NW8       29.80R WCI  31
ROCKFORD       CLOUDY    37  35  92 NW8       29.78R FOG     WCI  31
PEORIA         CLOUDY    37  34  89 N7G16     29.79R WCI  32
$$

NOTE: "FAIR" INDICATES FEW OR NO CLOUDS BELOW 12,000 FEET WITH NO
SIGNIFICANT WEATHER AND/OR OBSTRUCTIONS TO VISIBILITY. WIND
SPEEDS ARE IN MILES-PER-HOUR.




USA.gov is the U.S. government's official web portal to all federal, state and local government web resources and services.